SL-19 DEB, 23483

Orbit data source: Space-Track

SL-19 DEB, 23483 is space debris in LEO originally from a launch on Mon, 26 Dec 1994 UTC launched from the Tyuratam Missile And Space Complex (TTMTR). Debris objects in space refer to the collection of defunct objects orbiting the Earth. Examples of debris include non-operational satellites, rocket bodies, and fragments generated from explosions, collisions, or faulty payload assembly.

Loading next visibility...
Identifier
23483, 1994-085F
Orbit
LEO
Country
Flag of CISCIS
Related business
Manufacturer
Unknown
Mission
Spacecraft
Bus & Motor
Unknown
Mass
Unknown
Launch date (UTC)
1994-12-26 (31 years ago)
Launch vehicle
Unknown
Launch site
Tyuratam Missile And Space Complex (TTMTR)
Object type
Payload
Rocket body
Debris
Shape & HBR
Unknown shape, 0.9 m
Radar Cross Section
Large (>1 m²)

Expand to show TLE details & history
Last TLE update: 2 days ago

TLE from 2 days ago
0 SL-19 DEB
1 23483U 94085F   26171.41036080 -.00000038  00000-0  12982-3 0  9992
2 23483  64.7303  53.2634 0190561 169.8564   2.7110 11.22867187290857
Epoch: 2026-06-20T09:50Z
TLE epoch observation values (Epoch: 2026-06-20T09:50:55.173Z)
Latitude
6.57333°
Longitude
173.80464°
Altitude
1,886.521 km
Speed
7.012 km/s
True Right ascension
15h 20m 38s
True Declination
6° 32' 23"
Sunlit
Object was in full shadow at epoch
Visualization orbit readout
Latitude
Unknown
Longitude
Unknown
Altitude
Unknown
Speed
Unknown
Apparent Right ascension
Unknown
Apparent Declination
Unknown
Sunlit
N/A
Visualization observer readout
Local Sidereal Time
01:06:51
Azimuth
Unknown
Elevation
Unknown
Doppler factor
Unknown
Orbital elements
Apogee altitude
2,205.147 km
Perigee altitude
1,884.136 km
Semi-major axis
8,422.779 km
Eccentricity
0.01906
Inclination
64.7303°
RAAN
53.2634°
Arg. of periapsis
169.8564°
True anomaly
2.8168°
Mean anomaly
2.711°
Eccentric anomaly
2.76364°
Mean motion
2.80776 °/min
Orbital period
128.22 mins
BSTAR
0.00012982
Loading maneuver chart data...
Computing Atmospheric mass density...
Loading historical data...
Loading historical data...
Loading historical data...
Loading historical data...
Loading historical data...
Loading historical data...
Loading historical data...

Documentation

Showing up to 5 results
|